Showing default

COSMOS 1912, 18791

Orbit data source: Space-Track

COSMOS 1912, 18791 is a payload satellite owned by UNKS (CIS) in LEO that was launched on Fri, 15 Jan 1988 UTC via a TSIKLON-3 launch vehicle from the Plesetsk Missile And Space Complex (PKMTR). Payload-class satellites include a variety of spacecraft equipped with specific instruments for various scientific and technological missions. These include communications satellites like Starlink; space stations such as the ISS; scientific satellites like the Hubble; Earth observation satellites from companies like Planet Labs, Umbra, and HawkEye 360; GPS; miniature CubeSats for education and research; and military/defense satellites.

Loading next visibility...
Identifier
18791, 1988-002D
Orbit
LEO
Country
Flag of CISCIS
Related business
Manufacturer
NPO PM
Mission
Defense Communications
Bus & Motor
STRELA-3, Unknown motor
Mass
225 kg wet, 225 kg dry
Launch date (UTC)
1988-01-15 (38 years ago)
Launch vehicle
TSIKLON-3
Launch site
Plesetsk Missile And Space Complex (PKMTR)
Object type
Payload
Rocket body
Debris
Shape & HBR
Cyl, 0.8 m
Radar Cross Section
1.257 m², Large (>1 m²)

Expand to show TLE details & history
Last TLE update: 15 hours ago

TLE from 15 hours ago
0 COSMOS 1912
1 18791U 88002D   25260.92312328  .00000038  00000-0  14939-3 0  9999
2 18791  82.6078  52.4196 0010482   7.5632 112.3940 12.65062145739465
Epoch: 2025-09-17T22:09Z
TLE epoch observation values (Epoch: 2025-09-17T22:09:17.851Z)
Latitude
59.20826°
Longitude
-109.50837°
Altitude
1,415.224 km
Speed
7.157 km/s
True Right ascension
14h 39m 37s
True Declination
59° 04' 11"
Sunlit
Object was in daylight at epoch
Visualization orbit readout
Latitude
Unknown
Longitude
Unknown
Altitude
Unknown
Speed
Unknown
Apparent Right ascension
Unknown
Apparent Declination
Unknown
Sunlit
N/A
Visualization observer readout
Local Sidereal Time
05:39:13
Azimuth
Unknown
Elevation
Unknown
Doppler factor
Unknown
Orbital elements
Apogee altitude
1,407.588 km
Perigee altitude
1,391.283 km
Semi-major axis
7,777.573 km
Eccentricity
0.00105
Inclination
82.6078°
RAAN
52.4196°
Arg. of periapsis
7.5632°
True anomaly
112.505°
Mean anomaly
112.394°
Eccentric anomaly
112.44951°
Mean motion
3.1643 °/min
Orbital period
113.77 mins
BSTAR
0.00014939
Loading maneuver chart data...
Computing Atmospheric mass density...
Loading historical data...
Loading historical data...
Loading historical data...
Loading historical data...
Loading historical data...
Loading historical data...
Loading historical data...

Documentation

Showing up to 5 results
|